Find OneWeb SL0694

NORAD ID: 56722 Int'l Des: 2023-068 Owner: ONEWEBN Country: UK Constellation: oneweb operational
LEOCIRCULARPOLARONEWEB_TYPE

实时位置

正在加载3D地球...

关于 OneWeb SL0694

正在加载描述...

即将过境

Passes for default location (London). Set your location on the main map for personalized predictions.

高度历史

Loading altitude history...

两行轨道根数

1 56722U 23068N 26110.37674608 -.00000026 00000-0 -10046-3 0 9996
2 56722 87.9081 240.2338 0001417 108.5825 251.5460 13.16595044144168
Epoch: Apr 20, 2026 • Age: 7 hours

当前状态

高度 1201.6 km
速度 7.26 km/s
星下点 31.92°N, 145.22°E
发射日期 May 20, 2023
运行时间 2.9 years
类型 internet

技术详情

分类 Payload
质量 148.00 kg
干质量 140.00 kg
总质量 148.00 kg
长度 1.30 m
直径 1.00 m
跨度 5.00 m
形状 Trapezoid+2 pan
制造商 ONEWUS
平台类型 ARROW
阶段状态 In Orbit
所有者/国家 ONEWEBN/UK

Most Searched